EW7638 Weather Reports


time (UTC)temp
C
wind
direction
speed
KPH
gust
KPH
rain 1hr
cm
rain 24hr
cm
rain mn
cm
humidity
%
barometer
mb
20260510190747 29 267 0.0 11.3 0.00 0.00 0.00 38 1013.8
20260510190247 29 107 0.0 11.3 0.00 0.00 0.00 40 1013.9
20260510185747 29 258 0.0 0.0 0.00 0.00 0.00 41 1014.0
20260510185400 29 141 1.6 6.4 0.00 0.00 0.00 41 1014.2
20260510185248 28 129 0.0 0.0 0.00 0.00 0.00 42 1014.0
20260510184752 29 26 0.0 0.0 0.00 0.00 0.00 41 1014.2
20260510184747 28 186 0.0 0.0 0.00 0.00 0.00 40 1014.1
20260510183245 28 321 1.6 8.0 0.00 0.00 0.00 39 1014.3
20260510182745 29 284 0.0 8.0 0.00 0.00 0.00 43 1014.3
20260510182249 28 206 0.0 0.0 0.00 0.00 0.00 42 1014.3
20260510182245 29 93 0.0 0.0 0.00 0.00 0.00 41 1014.3
20260510181245 29 133 0.0 4.8 0.00 0.00 0.00 42 1014.3
20260510180745 28 79 0.0 4.8 0.00 0.00 0.00 43 1014.4
20260510180245 28 66 0.0 1.6 0.00 0.00 0.00 43 1014.4
20260510175748 28 319 0.0 6.4 0.00 0.00 0.00 43 1014.5
20260510175744 28 212 1.6 6.4 0.00 0.00 0.00 44 1014.5
20260510174743 28 342 3.2 11.3 0.00 0.00 0.00 41 1014.5
20260510174243 28 111 3.2 11.3 0.00 0.00 0.00 40 1014.5
20260510173750 29 241 0.0 6.4 0.00 0.00 0.00 41 1014.5
20260510173746 29 190 0.0 6.4 0.00 0.00 0.00 41 1014.5
20260510172745 29 290 0.0 0.0 0.00 0.00 0.00 40 1014.5
20260510172243 29 281 0.0 0.0 0.00 0.00 0.00 41 1014.5
20260510171752 29 271 0.0 0.0 0.00 0.00 0.00 45 1014.7
20260510171746 29 222 0.0 0.0 0.00 0.00 0.00 44 1014.6
20260510170743 28 222 0.0 0.0 0.00 0.00 0.00 42 1014.8
20260510170243 28 241 0.0 0.0 0.00 0.00 0.00 45 1014.7
20260510165743 28 128 0.0 0.0 0.00 0.00 0.00 44 1014.8
20260510165242 27 129 0.0 0.0 0.00 0.00 0.00 47 1014.7
20260510164741 27 353 0.0 0.0 0.00 0.00 0.00 44 1014.8
20260510164240 27 219 0.0 0.0 0.00 0.00 0.00 44 1014.8
20260510163741 27 134 0.0 0.0 0.00 0.00 0.00 46 1014.8
20260510163242 27 116 0.0 0.0 0.00 0.00 0.00 47 1014.9
20260510162741 27 271 0.0 0.0 0.00 0.00 0.00 49 1014.9
20260510162241 27 115 0.0 0.0 0.00 0.00 0.00 49 1015.0
20260510161741 27 318 0.0 0.0 0.00 0.00 0.00 47 1015.0
20260510161239 27 107 0.0 3.2 0.00 0.00 0.00 51 1015.0
20260510160738 27 133 0.0 6.4 0.00 0.00 0.00 53 1015.0
20260510160237 26 178 1.6 8.0 0.00 0.00 0.00 51 1015.0
20260510155737 26 139 0.0 8.0 0.00 0.00 0.00 50 1015.0
20260510155238 26 90 0.0 1.6 0.00 0.00 0.00 52 1015.2
20260510154738 26 133 0.0 0.0 0.00 0.00 0.00 53 1015.2
20260510154237 26 120 0.0 0.0 0.00 0.00 0.00 55 1015.3
20260510153735 26 317 0.0 4.8 0.00 0.00 0.00 54 1015.4
20260510153235 26 109 0.0 4.8 0.00 0.00 0.00 53 1015.4
20260510152735 26 146 0.0 0.0 0.00 0.00 0.00 56 1015.4
20260510152239 25 156 0.0 4.8 0.00 0.00 0.00 58 1015.3
20260510152235 26 139 0.0 4.8 0.00 0.00 0.00 58 1015.3
20260510151237 25 276 0.0 0.0 0.00 0.00 0.00 57 1015.2
20260510150733 25 211 0.0 0.0 0.00 0.00 0.00 58 1015.2
20260510150233 25 337 0.0 0.0 0.00 0.00 0.00 59 1015.2
20260510145731 25 326 0.0 0.0 0.00 0.00 0.00 60 1015.2
20260510145229 25 319 0.0 0.0 0.00 0.00 0.00 65 1015.2
20260510144729 25 126 0.0 0.0 0.00 0.00 0.00 63 1015.2
20260510144230 24 302 0.0 0.0 0.00 0.00 0.00 64 1015.2
20260510143734 24 342 0.0 0.0 0.00 0.00 0.00 66 1015.2
20260510143728 24 212 0.0 0.0 0.00 0.00 0.00 65 1015.2
20260510142731 24 348 0.0 0.0 0.00 0.00 0.00 66 1015.2
20260510142727 24 0 0.0 0.0 0.00 0.00 0.00 65 1015.2
20260510141729 23 327 0.0 0.0 0.00 0.00 0.00 68 1015.2
20260510141725 23 330 0.0 0.0 0.00 0.00 0.00 69 1015.1
20260510140728 23 336 0.0 0.0 0.00 0.00 0.00 70 1015.2
20260510140724 23 302 0.0 0.0 0.00 0.00 0.00 69 1015.3
20260510135725 23 120 0.0 0.0 0.00 0.00 0.00 73 1015.2
20260510135226 22 210 0.0 0.0 0.00 0.00 0.00 73 1015.2
20260510134726 22 325 0.0 0.0 0.00 0.00 0.00 71 1015.3
20260510134229 22 48 0.0 0.0 0.00 0.00 0.00 77 1015.2
20260510134224 22 124 0.0 0.0 0.00 0.00 0.00 75 1015.2
20260510133224 21 8 0.0 0.0 0.00 0.00 0.00 77 1015.1
20260510132730 21 134 0.0 0.0 0.00 0.00 0.00 80 1015.0
20260510132726 21 8 0.0 0.0 0.00 0.00 0.00 78 1015.1
20260510131725 21 104 0.0 0.0 0.00 0.00 0.00 81 1015.0
20260510131226 20 203 0.0 0.0 0.00 0.00 0.00 83 1014.9
20260510130724 20 148 0.0 0.0 0.00 0.00 0.00 83 1014.9
20260510130228 19 130 0.0 0.0 0.00 0.00 0.00 85 1014.8
20260510130224 20 114 0.0 0.0 0.00 0.00 0.00 84 1014.9
20260510125223 19 214 0.0 0.0 0.00 0.00 0.00 85 1014.7
20260510125217 18 193 0.0 0.0 0.00 0.00 0.00 84 1014.7
20260510124216 18 131 0.0 0.0 0.00 0.00 0.00 84 1014.7
20260510123719 18 131 0.0 0.0 0.00 0.00 0.00 84 1014.8
20260510123218 17 131 0.0 0.0 0.00 0.00 0.00 83 1014.7
20260510122719 17 316 0.0 0.0 0.00 0.00 0.00 83 1014.5
20260510122221 17 86 0.0 0.0 0.00 0.00 0.00 83 1014.5
20260510122217 17 45 0.0 0.0 0.00 0.00 0.00 83 1014.5
20260510121222 17 137 0.0 0.0 0.00 0.00 0.00 83 1014.4
20260510121218 17 61 0.0 0.0 0.00 0.00 0.00 83 1014.4
20260510120217 17 137 0.0 0.0 0.00 0.00 0.00 83 1014.4
20260510115719 17 137 0.0 0.0 0.00 0.00 0.00 83 1014.4
20260510115220 -17 0.0 0.0 0.00 0.00 0.00 1014.3
20260510115216 16 131 0.0 0.0 0.00 0.00 0.00 83 1014.4
20260510114214 -17 0.0 0.0 0.00 0.00 0.00 1014.3
20260510113713 -17 0.0 0.0 0.00 0.00 0.00 1014.1
20260510113709 -17 0.0 0.0 0.00 0.00 0.00 1014.0
20260510112712 -17 0.0 0.0 0.00 0.00 0.00 1013.9
20260510112214 -17 0.0 0.0 0.00 0.00 0.00 1013.8
20260510111619 -17 0.0 0.0 0.00 0.00 0.00 1013.7
20260510111615 -17 0.0 0.0 0.00 0.00 0.00 1013.8
20260510110609 -17 0.0 0.0 0.00 0.00 0.00 1013.7
20260510110014 -17 0.0 0.0 0.00 0.00 0.00 1013.7
20260510105518 -17 0.0 0.0 0.00 0.00 0.00 1013.4
20260510105514 -17 0.0 0.0 0.00 0.00 0.00 1013.5
20260510104511 -17 0.0 0.0 0.00 0.00 0.00 1013.3
20260510104010 -17 0.0 0.0 0.00 0.00 0.00 1013.3
20260510104005 -17 0.0 0.0 0.00 0.00 0.00 1013.2
20260510102916 -17 0.0 0.0 0.00 0.00 0.00 1013.0
20260510102912 -17 0.0 0.0 0.00 0.00 0.00 1013.2
20260510101908 -17 0.0 0.0 0.00 0.00 0.00 1013.0
20260510101311 -17 0.0 0.0 0.00 0.00 0.00 1012.9
20260510100802 -17 0.0 0.0 0.00 0.00 0.00 1012.8
20260510100214 -17 0.0 0.0 0.00 0.00 0.00 1012.8
20260510095714 -17 0.0 0.0 0.00 0.00 0.00 1012.8
20260510095206 -17 0.0 0.0 0.00 0.00 0.00 1012.8
20260510094615 -17 0.0 0.0 0.00 0.00 0.00 1012.8
20260510094113 -17 0.0 0.0 0.00 0.00 0.00 1012.8
20260510093615 -17 0.0 0.0 0.00 0.00 0.00 1012.5
20260510093605 -17 0.0 0.0 0.00 0.00 0.00 1012.5
20260510092515 -17 0.0 0.0 0.00 0.00 0.00 1012.5
20260510092017 -17 0.0 0.0 0.00 0.00 0.00 1012.4
20260510091516 -17 0.0 0.0 0.00 0.00 0.00 1012.2
20260510091008 -17 0.0 0.0 0.00 0.00 0.00 1012.2
20260510090509 14 74 0.0 0.0 0.00 0.00 0.00 84 1012.1
20260510085915 14 74 0.0 0.0 0.00 0.00 0.00 84 1011.9
20260510085412 14 74 0.0 0.0 0.00 0.00 0.00 84 1011.9
20260510084912 14 74 0.0 0.0 0.00 0.00 0.00 84 1011.8
20260510084413 15 72 0.0 0.0 0.00 0.00 0.00 84 1011.7
20260510083915 15 72 0.0 0.0 0.00 0.00 0.00 84 1011.7
20260510083911 15 72 0.0 0.0 0.00 0.00 0.00 84 1011.7
20260510082910 15 72 0.0 0.0 0.00 0.00 0.00 84 1011.8
20260510082410 15 72 0.0 0.0 0.00 0.00 0.00 84 1011.8
20260510081909 15 72 0.0 0.0 0.00 0.00 0.00 84 1011.8
20260510081414 15 72 0.0 0.0 0.00 0.00 0.00 84 1011.8
20260510081408 15 72 0.0 0.0 0.00 0.00 0.00 84 1011.8
20260510081023 15 72 0.0 0.0 0.00 0.00 0.00 84 1011.7
20260510080519 15 72 0.0 0.0 0.00 0.00 0.00 84 1011.7
20260510075414 15 72 0.0 0.0 0.00 0.00 0.00 84 1011.7
20260510075410 15 72 0.0 0.0 0.00 0.00 0.00 84 1011.7
20260510075017 15 72 0.0 0.0 0.00 0.00 0.00 84 1011.7
20260510073908 15 72 0.0 0.0 0.00 0.00 0.00 84 1011.6
20260510073405 15 72 0.0 0.0 0.00 0.00 0.00 84 1011.6
20260510072904 15 72 0.0 0.0 0.00 0.00 0.00 84 1011.6
20260510072403 15 72 0.0 0.0 0.00 0.00 0.00 84 1011.6
20260510071902 15 72 0.0 0.0 0.00 0.00 0.00 84 1011.5
20260510071406 15 72 0.0 0.0 0.00 0.00 0.00 84 1011.5
20260510071401 15 72 0.0 0.0 0.00 0.00 0.00 84 1011.5
20260510070404 15 72 0.0 0.0 0.00 0.00 0.00 84 1011.5
20260510070400 15 72 0.0 0.0 0.00 0.00 0.00 84 1011.4
20260510070011 15 72 0.0 0.0 0.00 0.00 0.00 84 1011.6
20260510064900 15 72 0.0 0.0 0.00 0.00 0.00 85 1011.7
20260510064405 15 72 0.0 0.0 0.00 0.00 0.00 85 1011.7
20260510064401 15 72 0.0 0.0 0.00 0.00 0.00 85 1011.7
20260510063400 15 72 0.0 0.0 0.00 0.00 0.00 85 1011.5
20260510062858 15 72 0.0 0.0 0.00 0.00 0.00 84 1011.5
20260510062400 15 72 0.0 0.0 0.00 0.00 0.00 84 1011.4
20260510061859 15 72 0.0 0.0 0.00 0.00 0.00 84 1011.4
20260510061358 15 72 0.0 0.0 0.00 0.00 0.00 84 1011.4
20260510060859 15 72 0.0 0.0 0.00 0.00 0.00 85 1011.5
20260510060358 15 72 0.0 0.0 0.00 0.00 0.00 84 1011.5
20260510055858 15 72 0.0 0.0 0.00 0.00 0.00 84 1011.7
20260510055404 15 72 0.0 0.0 0.00 0.00 0.00 84 1011.7
20260510055400 15 72 0.0 0.0 0.00 0.00 0.00 84 1011.6
20260510054356 15 72 0.0 0.0 0.00 0.00 0.00 85 1011.8
20260510053902 15 72 0.0 0.0 0.00 0.00 0.00 85 1011.8
20260510053858 15 72 0.0 0.0 0.00 0.00 0.00 85 1011.8
20260510052858 15 72 0.0 0.0 0.00 0.00 0.00 84 1011.8
20260510052359 15 72 0.0 0.0 0.00 0.00 0.00 84 1012.1
20260510051901 16 72 0.0 0.0 0.00 0.00 0.00 84 1011.9
20260510051356 16 72 0.0 0.0 0.00 0.00 0.00 84 1012.2
20260510050855 15 72 0.0 0.0 0.00 0.00 0.00 85 1012.2
20260510050355 15 72 0.0 0.0 0.00 0.00 0.00 85 1012.2
20260510045855 16 72 0.0 0.0 0.00 0.00 0.00 85 1012.1
20260510045354 16 72 0.0 0.0 0.00 0.00 0.00 85 1012.2
20260510044900 16 72 0.0 0.0 0.00 0.00 0.00 85 1012.3
20260510044856 16 72 0.0 0.0 0.00 0.00 0.00 85 1012.2
20260510043854 16 72 0.0 0.0 0.00 0.00 0.00 85 1012.3
20260510043355 16 72 0.0 0.0 0.00 0.00 0.00 85 1012.3
20260510042854 16 72 0.0 0.0 0.00 0.00 0.00 85 1012.3
20260510042355 16 72 0.0 0.0 0.00 0.00 0.00 85 1012.2
20260510041852 16 72 0.0 0.0 0.00 0.00 0.00 85 1012.1
20260510041353 16 72 0.0 0.0 0.00 0.00 0.00 85 1012.1
20260510040859 16 72 0.0 0.0 0.00 0.00 0.00 85 1012.1
20260510040852 16 72 0.0 0.0 0.00 0.00 0.00 85 1012.1
20260510035854 16 72 0.0 0.0 0.00 0.00 0.00 85 1012.1
20260510035353 16 72 0.0 0.0 0.00 0.00 0.00 85 1011.9
20260510034854 16 72 0.0 0.0 0.00 0.00 0.00 85 1011.8
20260510034356 16 72 0.0 0.0 0.00 0.00 0.00 85 1011.9
20260510034352 16 72 0.0 0.0 0.00 0.00 0.00 85 1011.8
20260510034000 16 72 0.0 0.0 0.00 0.00 0.00 85 1011.9
20260510033458 16 72 0.0 0.0 0.00 0.00 0.00 85 1011.9
20260510033001 16 72 0.0 0.0 0.00 0.00 0.00 85 1011.9
20260510031850 16 72 0.0 0.0 0.00 0.00 0.00 85 1011.8
20260510031352 16 72 0.0 0.0 0.00 0.00 0.00 85 1011.8
20260510030850 16 72 0.0 0.0 0.00 0.00 0.00 85 1011.8
20260510030350 16 72 0.0 0.0 0.00 0.00 0.00 85 1011.7
20260510025850 16 72 0.0 0.0 0.00 0.00 0.00 85 1011.7
20260510025354 16 72 0.0 0.0 0.00 0.00 0.00 85 1011.7
20260510025350 16 72 0.0 0.0 0.00 0.00 0.00 85 1011.7
20260510024353 16 72 0.0 0.0 0.00 0.00 0.00 85 1011.6
20260510024349 16 72 0.0 0.0 0.00 0.00 0.00 85 1011.7
20260510023355 17 72 0.0 0.0 0.00 0.00 0.00 85 1011.6
20260510023350 16 72 0.0 0.0 0.00 0.00 0.00 85 1011.6
20260510022348 17 72 0.0 0.0 0.00 0.00 0.00 85 1011.6
20260510021848 17 72 0.0 0.0 0.00 0.00 0.00 85 1011.5
20260510021352 17 72 0.0 0.0 0.00 0.00 0.00 85 1011.5
20260510021348 17 72 0.0 0.0 0.00 0.00 0.00 85 1011.5
20260510020349 17 72 0.0 0.0 0.00 0.00 0.00 85 1011.4
20260510015847 17 72 0.0 0.0 0.00 0.00 0.00 85 1011.4
20260510015349 17 72 0.0 0.0 0.00 0.00 0.00 85 1011.5
20260510014852 17 72 0.0 0.0 0.00 0.00 0.00 85 1011.5
20260510014848 17 72 0.0 0.0 0.00 0.00 0.00 85 1011.6
20260510013853 17 72 0.0 0.0 0.00 0.00 0.00 85 1011.0
20260510013848 17 72 0.0 0.0 0.00 0.00 0.00 85 1011.2
20260510012848 17 72 0.0 0.0 0.00 0.00 0.00 85 1011.0
20260510012349 17 72 0.0 0.0 0.00 0.00 0.00 84 1011.0
20260510011848 18 72 0.0 0.0 0.00 0.00 0.00 84 1010.9
20260510011346 18 72 0.0 0.0 0.00 0.00 0.00 84 1010.7
20260510010847 18 72 0.0 0.0 0.00 0.00 0.00 84 1010.7
20260510010348 18 72 0.0 0.0 0.00 0.00 0.00 84 1010.6
20260510005845 18 72 0.0 0.0 0.00 0.00 0.00 84 1010.6
20260510005354 18 72 0.0 0.0 0.00 0.00 0.00 83 1010.6
20260510005350 18 72 0.0 0.0 0.00 0.00 0.00 83 1010.7
20260510004955 18 72 0.0 0.0 0.00 0.00 0.00 83 1010.5
20260510004453 19 72 0.0 0.0 0.00 0.00 0.00 83 1010.5
20260510003955 19 72 0.0 0.0 0.00 0.00 0.00 83 1010.5
20260510002847 19 72 0.0 0.0 0.00 0.00 0.00 82 1010.4
20260510002346 20 72 0.0 0.0 0.00 0.00 0.00 82 1010.4
20260510001843 20 72 0.0 0.0 0.00 0.00 0.00 81 1010.5
20260510001345 20 72 0.0 0.0 0.00 0.00 0.00 81 1010.5
20260510000844 20 72 0.0 0.0 0.00 0.00 0.00 80 1010.5
20260510000348 21 72 0.0 0.0 0.00 0.00 0.00 80 1010.4
20260510000343 20 72 0.0 0.0 0.00 0.00 0.00 80 1010.5
20260509235952 21 72 0.0 0.0 0.00 0.00 0.00 79 1010.4
20260509234844 21 72 0.0 0.0 0.00 0.00 0.00 78 1010.3
20260509234350 21 72 0.0 0.0 0.00 0.00 0.00 77 1010.3
20260509234344 21 72 0.0 0.0 0.00 0.00 0.00 77 1010.2
20260509233345 22 72 0.0 0.0 0.00 0.00 0.00 76 1010.0
20260509233341 22 72 0.0 0.0 0.00 0.00 0.00 76 1010.2
20260509232342 22 79 0.0 0.0 0.00 0.00 0.00 75 1009.8
20260509231842 22 110 0.0 0.0 0.00 0.00 0.00 74 1009.8
20260509231342 22 104 0.0 0.0 0.00 0.00 0.00 74 1009.8
20260509230844 22 57 0.0 0.0 0.00 0.00 0.00 74 1009.8
20260509230340 22 142 0.0 0.0 0.00 0.00 0.00 73 1009.7
20260509225840 22 141 0.0 0.0 0.00 0.00 0.00 73 1009.6
20260509225340 22 127 0.0 0.0 0.00 0.00 0.00 73 1009.7
20260509224838 22 124 0.0 0.0 0.00 0.00 0.00 72 1009.6
20260509224337 22 132 0.0 0.0 0.00 0.00 0.00 72 1009.6
20260509223842 22 142 0.0 0.0 0.00 0.00 0.00 72 1009.7
20260509223838 22 120 0.0 0.0 0.00 0.00 0.00 72 1009.6
20260509223446 23 125 0.0 0.0 0.00 0.00 0.00 72 1009.7
20260509222334 23 215 0.0 0.0 0.00 0.00 0.00 72 1009.7
20260509221835 23 75 0.0 0.0 0.00 0.00 0.00 72 1009.6
20260509221332 23 351 0.0 0.0 0.00 0.00 0.00 72 1009.8
20260509220835 23 124 0.0 0.0 0.00 0.00 0.00 72 1009.8
20260509220335 23 354 0.0 0.0 0.00 0.00 0.00 72 1009.8
20260509220331 23 63 0.0 0.0 0.00 0.00 0.00 71 1009.9
20260509215331 23 151 0.0 4.8 0.00 0.00 0.00 70 1009.7
20260509214831 23 146 0.0 4.8 0.00 0.00 0.00 70 1009.7
20260509214333 23 141 0.0 1.6 0.00 0.00 0.00 71 1009.8
20260509213835 23 146 0.0 0.0 0.00 0.00 0.00 71 1009.6
20260509213831 23 115 0.0 1.6 0.00 0.00 0.00 70 1009.7
20260509212835 23 109 0.0 0.0 0.00 0.00 0.00 71 1009.7
20260509212831 23 288 0.0 0.0 0.00 0.00 0.00 72 1009.6
20260509211833 23 113 0.0 11.3 0.00 0.00 0.00 71 1009.7
20260509211335 23 101 0.0 3.2 0.00 0.00 0.00 70 1009.6
20260509211331 23 131 0.0 11.3 0.00 0.00 0.00 70 1009.6
20260509210332 23 139 0.0 3.2 0.00 0.00 0.00 70 1009.6
20260509205833 23 124 1.6 16.1 0.00 0.00 0.00 70 1009.7
20260509205332 23 139 1.6 16.1 0.00 0.00 0.00 69 1009.5
20260509204833 23 199 1.6 9.7 0.00 0.00 0.00 69 1009.4
20260509204332 23 122 3.2 16.1 0.00 0.00 0.00 70 1009.4
20260509203828 22 110 3.2 16.1 0.00 0.00 0.00 71 1009.5
20260509203331 22 41 0.0 4.8 0.00 0.00 0.00 72 1009.5
20260509203327 22 105 1.6 11.3 0.00 0.00 0.00 71 1009.6
20260509202935 22 209 0.0 0.0 0.00 0.00 0.00 73 1009.5
20260509201827 22 145 0.0 11.3 0.00 0.00 0.00 73 1009.6
20260509201323 22 225 0.0 11.3 0.00 0.00 0.00 73 1009.8
20260509200823 22 9 1.6 6.4 0.00 0.00 0.00 74 1009.9
20260509200322 21 167 1.6 12.9 0.00 0.00 0.00 73 1009.7
20260509195823 22 205 1.6 12.9 0.00 0.00 0.00 73 1009.9
20260509195327 21 75 0.0 0.0 0.00 0.00 0.00 72 1010.0
20260509195321 22 129 0.0 0.0 0.00 0.00 0.00 73 1010.0
20260509194926 22 141 0.0 0.0 0.00 0.00 0.00 73 1009.9
20260509193821 21 61 0.0 0.0 0.00 0.00 0.00 72 1009.9
20260509193325 22 61 0.0 0.0 0.00 0.00 0.00 70 1010.1
20260509193321 22 61 0.0 0.0 0.00 0.00 0.00 71 1010.0
20260509192321 22 354 0.0 0.0 0.00 0.00 0.00 70 1010.2
20260509191819 22 359 0.0 0.0 0.00 0.00 0.00 69 1010.3
20260509191320 22 9 0.0 1.6 0.00 0.00 0.00 68 1010.3